Location: *
(48.7139°N, 6.2150°E)
Time: 08:03:47
(UTC+00:00)

Daily predictions for brighter satellites

Satellite Brightness Start Highest point End
(mag) Time Altitude Azimuth Time Altitude Azimuth Time Altitude Azimuth
Cosmos 2184 Rocket 4.1 18:06:30 10° N 18:12:37 56° ENE 18:18:45 10° SSE
COSMOS 2455 2.9 18:07:11 10° NNW 18:13:14 76° NE 18:19:15 10° SE
ARGOS 4.4 18:10:14 10° ESE 18:14:21 23° ENE 18:18:30 10° N
USA 234 4.0 18:10:53 10° ENE 18:17:10 50° NNW 18:23:27 10° W
COBE Rocket 4.4 18:14:13 10° N 18:19:10 71° WNW 18:24:14 10° SSW
Cosmos 1666 4.4 18:15:42 10° SW 18:19:13 38° WNW 18:22:46 10° N
Cosmos 2333 Rocket 2.5 18:13:48 10° NNW 18:19:20 50° NE 18:24:53 10° SE
BREEZE-M DEB (TANK) 4.1 18:18:02 10° W 18:19:49 18° SW 18:21:27 10° SSE
Cosmos 405 3.2 18:17:08 10° NNW 18:20:40 77° W 18:24:08 10° S
Resurs 01 Rocket 3.5 18:19:16 10° E 18:21:33 14° ENE 18:23:49 10° NNE
USA 186 3.0 18:21:32 10° SE 18:24:24 27° ENE 18:27:21 10° N
Okean 2 Rocket 3.2 18:22:25 10° S 18:26:53 84° W 18:31:25 10° N
Okean 1 Rocket 3.9 18:23:15 10° SSE 18:26:59 29° E 18:30:45 10° NNE
GP-B 3.2 18:24:25 10° N 18:28:46 53° E 18:33:07 10° SSE
ADEOS Rocket 4.3 18:23:35 10° NE 18:29:32 27° E 18:35:46 10° SE
ATLAS 2AS CENTAUR R/B 3.0 18:22:00 10° NW 18:29:49 67° NE 18:36:59 10° SE
H-2A R/B 2.9 18:26:55 10° ESE 18:31:08 29° ENE 18:35:25 10° N
Cosmos 2237 Rocket 3.2 18:29:22 10° NNW 18:34:24 30° NE 18:39:01 12° ESE
Cosmos 2251 Rocket 3.6 18:29:07 10° NNW 18:34:33 90° NNE 18:39:56 10° SSE
Cosmos 1544 3.7 18:31:42 10° SSE 18:34:56 32° E 18:38:11 10° NNE
SAR-Lupe-2 3.9 18:34:33 10° NNE 18:37:59 42° E 18:41:24 10° S
Cosmos 1441 Rocket 3.8 18:34:42 10° SSE 18:38:11 34° E 18:41:39 10° NNE
GEOS 3 Rocket 4.2 18:35:08 10° SSE 18:40:09 57° SW 18:45:13 10° NW
Cosmos 1980 4.5 18:37:56 10° NNW 18:43:08 36° NE 18:47:30 14° ESE
Aureole 1 Rocket 3.3 18:37:55 10° NNW 18:43:45 81° ENE 18:48:04 10° SSE
Cosmos 2327 Rocket 4.5 18:38:39 10° N 18:44:57 74° E 18:51:06 10° SSE
MOS 1 4.3 18:39:47 10° SSE 18:45:29 81° ENE 18:51:13 10° NNW
Timation 2 Rocket 4.0 18:39:49 10° SSW 18:46:21 65° ESE 18:52:37 10° NE
SJ-6B 3.2 18:43:45 10° SE 18:47:44 49° ENE 18:51:43 10° N
Nadezhda 1 Rocket 4.0 18:42:33 10° S 18:48:30 60° E 18:54:28 10° NNE
Cosmos 1536 Rocket 3.9 18:45:11 10° NNW 18:49:30 67° W 18:53:47 10° S
Cosmos 1939 Rocket 3.6 18:46:25 10° S 18:50:12 53° W 18:54:01 10° NNW
Cosmos 1025 Rocket 3.4 18:52:01 10° NNW 18:56:17 66° W 19:00:30 10° S
Cosmos 1707 3.0 18:52:58 10° N 18:56:47 47° ENE 19:00:08 13° SSE
ASTEX 1 3.4 18:53:10 10° NNE 18:58:01 58° E 19:02:49 10° S
CZ-2C R/B 3.7 18:53:36 10° NNE 18:58:02 57° E 19:02:23 10° S
Okean 1-7 Rocket 4.4 18:54:09 10° N 18:58:09 32° ENE 19:00:40 18° ESE
Cosmos 1892 Rocket 4.4 18:56:25 10° N 19:00:28 33° ENE 19:02:54 19° ESE
Meteor 2-15 Rocket 4.4 18:54:33 10° S 19:00:39 76° E 19:06:50 10° NNE
Meteor 2-15 4.5 18:56:09 10° S 19:02:18 88° W 19:08:30 10° N
SL-16 R/B 3.6 18:58:05 10° N 19:02:32 23° NE 19:05:35 15° E
Cosmos 389 Rocket 3.2 19:00:01 10° N 19:03:10 33° ENE 19:04:26 25° ESE
NOSS 0 Rocket 4.0 18:58:55 10° NNW 19:05:06 66° ENE 19:10:04 16° SE
CZ-2C R/B 3.8 19:04:05 19° ESE 19:07:18 37° ENE 19:12:17 10° N
Meteor 1-12 Rocket 4.3 19:02:15 10° S 19:08:00 89° W 19:13:43 10° NNE
COSMOS 2428 2.9 19:04:38 10° NNW 19:10:20 76° WSW 19:16:00 10° SSE
Meteor 1-4 Rocket 3.2 19:10:21 10° N 19:13:40 33° ENE 19:14:27 30° E
ERBS 4.2 19:11:41 10° NW 19:14:27 22° N 19:16:14 15° NE
Cosmos 2219 Rocket 2.4 19:09:13 10° NNW 19:14:48 72° WSW 19:20:22 10° SSE
Cosmos 2341 Rocket 4.0 19:11:47 10° N 19:18:02 65° ENE 19:23:53 12° SSE
Meteor 1-15 Rocket 4.4 19:15:38 10° SSE 19:21:10 51° E 19:26:49 10° NNE
Cosmos 2181 Rocket 4.2 19:18:06 10° SSE 19:23:58 47° E 19:29:59 10° NNE
Cosmos 2056 Rocket 4.1 19:21:25 10° SSE 19:26:17 35° ESE 19:31:11 10° NE
Cosmos 407 Rocket 3.4 19:27:32 10° NNW 19:32:41 71° ENE 19:35:14 30° SE
CZ-4C R/B 4.4 19:28:32 10° WNW 19:33:12 23° N 19:38:32 10° NE
SL-08 RB Rocket 3.7 19:31:35 27° SSE 19:34:04 68° ENE 19:38:44 10° N
CZ-2C R/B 4.0 19:29:46 10° NE 19:33:16 22° ENE 19:33:16 22° ENE
Cosmos 2219 3.3 19:30:53 10° S 19:36:26 53° ESE 19:42:01 10° NE
NOSS 3-4 (A) 3.9 19:30:08 10° NW 19:37:07 82° SW 19:42:04 24° SSE
NOSS 3-4 (C) 3.9 19:30:14 10° NW 19:37:12 82° SW 19:42:08 24° SSE
SPOT 3 Rocket 4.0 19:33:17 10° S 19:38:22 60° WSW 19:43:29 10° NNW
Cosmos 1624 Rocket 4.2 19:33:53 10° S 19:38:47 44° ESE 19:43:43 10° NE
Cosmos 2227 Rocket 2.7 19:38:54 33° ESE 19:39:23 34° ESE 19:44:25 10° NE
Cosmos 1461 3.1 19:36:38 10° SW 19:40:36 64° NW 19:44:33 10° NNE
Cosmos 2218 Rocket 4.1 19:34:51 10° N 19:41:12 60° ENE 19:44:33 28° SSE
Cosmos 1437 Rocket 3.4 19:37:39 10° N 19:40:57 35° ENE 19:40:57 35° ENE
Cosmos 614 Rocket 3.9 19:36:10 10° NNW 19:41:27 79° ENE 19:43:50 33° SSE
Cosmos 1544 Rocket 4.0 19:44:31 42° E 19:44:31 42° E 19:48:42 10° NNE
Cosmos 1455 Rocket 3.2 19:44:43 46° SE 19:45:27 51° E 19:49:47 10° NNE
SL-8 R/B 3.6 19:43:07 10° WSW 19:47:54 74° SSE 19:49:21 44° E
Cosmos 2366 rocket 4.0 19:42:39 10° N 19:49:00 64° ENE 19:52:02 32° SSE
Cosmos 2297 Rocket 2.5 19:48:52 34° SSE 19:50:35 43° ESE 19:55:54 10° NE
Cosmos 1954 Rocket 4.1 19:47:45 10° NNW 19:52:56 55° ENE 19:54:07 45° ESE
Cosmos 405 Rocket 2.4 19:54:00 77° E 19:54:00 77° E 19:57:40 10° NNE
ARGOS 3.5 19:49:52 16° S 19:54:10 65° WSW 19:59:33 10° NNW
USA 186 4.3 19:52:38 10° SSW 19:55:19 22° W 19:58:04 10° NW
Cosmos 864 Rocket 4.4 19:49:26 10° N 19:55:38 68° ENE 19:58:18 36° SSE
MetOp-B 4.3 19:54:34 43° ESE 19:55:53 54° ENE 20:01:07 10° N
Meteor 1-24 Rocket 3.9 19:50:37 10° N 19:56:14 56° ENE 19:57:50 43° SE
Resurs 01 Rocket 1.6 19:55:58 43° S 19:57:24 85° WSW 20:01:53 10° NNW
Resurs 1-3 3.9 19:55:47 30° S 19:57:49 66° WSW 20:02:13 10° NNW
Spot 2 Rocket 3.5 19:57:18 48° ESE 19:58:24 61° ENE 20:03:23 10° N
USA 234 4.1 19:54:50 17° ENE 19:59:31 44° N 20:05:39 10° WNW
ERS-1 Rocket 3.9 20:00:25 30° ENE 20:00:27 30° ENE 20:04:48 10° N
SL-8 Rocket 3.9 19:54:50 10° N 20:01:05 87° W 20:04:44 26° S
Cosmos 2333 Rocket 3.8 19:58:26 10° NW 20:03:24 31° WSW 20:08:21 10° SSW
Cosmos 1626 Rocket 3.9 19:59:23 10° N 20:03:10 47° NE 20:03:10 47° NE
Cosmos 1626 4.5 20:02:02 10° NNE 20:02:57 14° NNE 20:02:57 14° NNE
Cosmos 1140 Rocket 3.4 20:00:18 10° NNW 20:05:32 88° ENE 20:06:49 53° SSE
Meteor 2-5 Rocket 3.7 20:00:30 10° NNW 20:06:19 88° E 20:08:43 38° SSE
Cosmos 1371 Rocket 3.9 20:03:33 10° SSW 20:08:52 88° ESE 20:14:16 10° NNE
H-2A R/B 3.0 20:06:40 15° SSW 20:10:24 42° W 20:15:10 10° NNW
SL-24 R/B 4.5 20:10:06 43° SSW 20:11:28 66° WSW 20:16:16 10° NNW
GENESIS II 4.4 20:09:23 10° NW 20:13:13 68° N 20:13:13 68° N
ADEOS Rocket 3.6 20:08:24 10° NNE 20:15:33 76° WNW 20:23:12 10° SSW
Cosmos 1959 Rocket 4.4 20:10:11 10° N 20:16:19 82° W 20:19:02 36° S
Terra 3.4 20:18:42 22° NE 20:18:42 22° NE 20:21:35 10° N
Cosmos 2237 Rocket 2.6 20:13:14 10° NW 20:18:49 57° WSW 20:20:51 37° S
ATLAS 2AS CENTAUR R/B 4.0 20:13:36 10° NW 20:20:23 36° WSW 20:24:53 18° SSW
Cosmos 1602 Rocket 4.0 20:18:40 10° N 20:22:09 50° NNE 20:22:09 50° NNE
Cosmos 676 Rocket 3.9 20:17:50 10° NNW 20:23:09 82° WSW 20:23:53 66° S
Cosmos 1980 4.5 20:21:58 10° NW 20:27:21 46° WSW 20:29:22 33° SSW
Meteor 1-22 Rocket 4.3 20:27:37 56° SSE 20:28:56 76° E 20:35:04 10° NNE
Cosmos 1674 3.7 20:29:06 10° NNW 20:31:52 43° NW 20:31:52 43° NW
CZ-2C R/B 4.3 20:45:09 27° SW 20:47:10 36° W 20:52:10 10° NNW
SL-16 R/B 2.1 20:41:40 10° NNW 20:47:23 84° WSW 20:47:27 83° SW
Cosmos 1850 Rocket 4.3 20:49:43 10° NNW 20:54:06 61° N 20:54:06 61° N
Cosmos 2082 4.2 21:05:13 50° NNE 21:05:13 50° NNE 21:09:25 10° NNE
Cosmos 1934 Rocket 4.2 21:01:07 10° N 21:06:21 57° NE 21:06:21 57° NE
SPOT 1/Viking Rocket 4.0 21:09:51 60° NW 21:09:51 60° NW 21:14:12 10° NNW
SPOT 5 3.8 21:11:43 44° NNW 21:11:43 44° NNW 21:15:07 10° NNW
CZ-2C R/B 3.0 21:09:19 10° N 21:14:46 63° WNW 21:14:46 63° WNW
RESURS DK-1 4.4 21:11:17 10° NNW 21:13:13 26° NNW 21:13:13 26° NNW
BREEZE-M DEB (TANK) 4.4 21:17:08 10° WNW 21:22:32 76° SSW 21:24:37 59° SE
Cosmos 2227 Rocket 3.1 21:20:30 27° WSW 21:23:17 46° NW 21:28:46 10° NNE
CZ-4C R/B 4.3 21:18:38 10° NW 21:23:59 26° NNE 21:27:43 18° ENE
Nadezhda 3 Rocket 4.1 21:25:13 70° NW 21:25:13 70° NW 21:31:04 10° N
Resurs 01 Rocket 4.5 21:33:55 10° W 21:34:36 10° W 21:35:16 10° WNW
Cosmos 2297 Rocket 3.4 21:30:18 14° WSW 21:34:42 38° NW 21:39:59 10° NNE
ERS-1 Rocket 4.3 21:40:25 35° WNW 21:40:25 35° WNW 21:43:53 10° NNW
Cosmos 1605 Rocket 4.5 21:34:32 10° N 21:39:37 57° NNE 21:39:37 57° NNE
USA 234 3.4 21:42:11 67° NNE 21:42:11 67° NNE 21:48:31 10° NW
Cosmos 1943 4.2 21:47:13 10° NNW 21:51:01 43° NNW 21:51:01 43° NNW
Cosmos 2263 Rocket 4.5 21:58:05 14° NE 21:58:05 14° NE 21:58:57 10° NE
Terra 3.7 21:57:36 27° NW 21:57:36 27° NW 21:59:57 10° NNW
Mayak 2.0 23:04:55 10° N 23:05:03 11° N 23:05:03 11° N
CZ-4C R/B 3.5 23:07:15 10° NW 23:12:51 50° N 23:12:51 50° N
Cosmos 2263 Rocket 4.0 23:39:46 27° N 23:39:46 27° N 23:42:52 10° NNE
